FW7399 Weather Reports


time (UTC)temp
F
wind
direction
speed
knots
gust
knots
rain 1hr
in
rain 24hr
in
rain mn
in
humidity
%
barometer
mb
20260906183903 69 86 1.7 5.2 0.12 2.10 2.10 94 1015.9
20260906182404 69 132 9.6 13.9 0.13 2.08 2.08 95 1017.3
20260906181404 69 129 7.0 10.4 0.15 2.06 2.06 94 1017.5
20260906180903 69 133 12.2 17.4 0.16 2.04 2.04 94 1017.5
20260906180404 70 112 12.2 14.8 0.18 2.03 2.03 94 1017.4
20260906175403 70 120 12.2 22.6 0.25 2.00 2.00 92 1017.5
20260906174403 69 108 23.5 33.0 0.59 1.98 1.98 91 1016.2
20260906173904 68 104 16.5 24.3 0.84 1.98 1.98 89 1015.8
20260906173404 68 109 18.2 30.4 1.01 1.98 1.98 89 1015.6
20260906172903 67 113 20.0 25.2 1.18 1.97 1.97 91 1015.9
20260906172404 66 113 20.0 26.1 1.46 1.95 1.95 94 1016.0
20260906171904 66 111 20.9 30.4 1.58 1.94 1.94 95 1016.7
20260906171404 67 117 15.6 24.3 1.74 1.91 1.91 97 1017.3
20260906170403 67 121 12.2 17.4 1.85 1.85 1.85 97 1017.5
20260906165904 67 108 12.2 17.4 1.82 1.82 1.82 97 1017.0
20260906165404 67 101 14.8 20.0 1.75 1.75 1.75 98 1016.9
20260906164904 66 114 14.8 20.0 1.61 1.61 1.61 97 1017.4
20260906163404 66 102 10.4 15.6 0.97 0.97 0.97 97 1018.5
20260906162904 67 73 11.3 19.1 0.79 0.79 0.79 97 1018.1
20260906162404 67 89 8.7 14.8 0.49 0.49 0.49 97 1017.2
20260906161904 67 50 14.8 21.7 0.36 0.36 0.36 96 1016.4
20260906161404 67 15 20.9 27.8 0.17 0.17 0.17 95 1016.4
20260906160903 68 38 17.4 27.8 0.02 0.02 0.02 94 1017.1
20260906160404 67 41 10.4 17.4 0.00 0.00 0.00 93 1017.7
20260906155904 67 67 16.5 31.3 0.00 0.00 0.00 92 1016.5
20260906155404 68 58 18.2 30.4 0.00 0.00 0.00 88 1016.1
20260906154903 70 22 11.3 18.2 0.00 0.01 0.00 85 1016.7
20260906153904 72 46 14.8 20.9 0.00 0.01 0.00 91 1016.5
20260906153404 73 77 8.7 17.4 0.00 0.02 0.00 98 1016.2
20260906152903 72 106 9.6 11.3 0.00 0.03 0.00 99 1015.8
20260906152404 72 90 8.7 12.2 0.00 0.05 0.00 98 1015.6
20260906151903 72 94 7.8 12.2 0.00 0.07 0.00 98 1015.6
20260906151403 72 92 7.8 10.4 0.00 0.08 0.00 98 1015.5
20260906150403 72 106 10.4 13.0 0.00 0.11 0.00 98 1015.4
20260906145904 72 117 7.8 12.2 0.00 0.12 0.00 99 1015.4
20260906144904 72 133 7.0 10.4 0.00 0.12 0.00 99 1015.3
20260906144404 72 127 9.6 12.2 0.00 0.12 0.00 99 1015.4
20260906141904 72 124 7.8 13.0 0.00 0.17 0.00 99 1015.7
20260906141403 72 119 8.7 13.0 0.00 0.18 0.00 99 1015.6
20260906140404 72 134 7.8 11.3 0.00 0.19 0.00 99 1015.6
20260906135404 72 129 9.6 12.2 0.00 0.20 0.00 99 1015.5
20260906134903 71 126 8.7 13.0 0.00 0.20 0.00 99 1015.5
20260906134403 72 126 8.7 12.2 0.00 0.20 0.00 99 1015.4
20260906133904 72 131 7.8 11.3 0.00 0.20 0.00 99 1015.4
20260906133404 72 135 7.0 10.4 0.00 0.20 0.00 99 1015.3
20260906132903 71 142 7.8 12.2 0.00 0.20 0.00 99 1015.2
20260906131903 71 136 7.8 11.3 0.00 0.20 0.00 99 1015.1
20260906131404 71 129 7.0 10.4 0.00 0.20 0.00 99 1015.3
20260906130904 71 133 6.1 10.4 0.00 0.20 0.00 99 1015.3
20260906130404 71 140 7.8 10.4 0.00 0.20 0.00 99 1015.3
20260906125903 71 132 6.1 10.4 0.00 0.20 0.00 99 1015.3
20260906124904 71 127 7.8 10.4 0.00 0.20 0.00 99 1015.4
20260906124403 71 126 7.0 10.4 0.00 0.20 0.00 99 1015.4
20260906123903 71 127 6.1 10.4 0.00 0.20 0.00 99 1015.3
20260906123404 71 129 6.1 10.4 0.00 0.20 0.00 99 1015.2
20260906122903 71 125 7.0 11.3 0.00 0.20 0.00 99 1015.2
20260906121903 71 131 7.8 10.4 0.00 0.20 0.00 99 1015.2
20260906120903 71 140 7.8 11.3 0.00 0.20 0.00 99 1014.9
20260906120404 71 142 7.8 12.2 0.00 0.20 0.00 99 1014.8
20260906115904 71 140 8.7 11.3 0.00 0.20 0.00 99 1014.8
20260906115403 71 136 6.1 10.4 0.00 0.20 0.00 99 1014.8
20260906114904 71 132 7.8 12.2 0.00 0.20 0.00 99 1014.6
20260906113904 71 132 7.0 10.4 0.00 0.20 0.00 99 1014.6
20260906113404 71 125 7.8 10.4 0.00 0.20 0.00 99 1014.6
20260906112403 71 138 7.8 11.3 0.00 0.20 0.00 99 1014.6
20260906111904 71 128 8.7 12.2 0.00 0.20 0.00 99 1014.5
20260906111404 71 125 7.8 10.4 0.00 0.20 0.00 99 1014.6
20260906105903 71 135 7.8 11.3 0.00 0.20 0.00 99 1014.7
20260906105404 71 130 6.1 10.4 0.00 0.20 0.00 99 1014.7
20260906104904 71 136 8.7 11.3 0.00 0.20 0.00 99 1014.7
20260906104404 71 132 7.0 11.3 0.00 0.20 0.00 99 1014.7
20260906103404 71 133 8.7 11.3 0.00 0.20 0.00 99 1014.7
20260906102904 71 129 7.0 10.4 0.00 0.20 0.00 99 1014.8
20260906101904 71 137 7.8 11.3 0.00 0.20 0.00 99 1014.9
20260906101404 71 126 7.8 10.4 0.00 0.20 0.00 99 1014.9
20260906100904 71 132 7.0 10.4 0.00 0.20 0.00 99 1014.9
20260906100403 71 138 7.8 10.4 0.00 0.20 0.00 100 1014.9
20260906095403 71 137 7.0 11.3 0.00 0.20 0.00 99 1014.8
20260906094903 71 140 7.8 12.2 0.00 0.20 0.00 99 1014.8
20260906093903 71 135 7.0 10.4 0.00 0.20 0.00 99 1014.7
20260906093404 71 130 6.1 11.3 0.00 0.20 0.00 99 1014.7
20260906092903 71 128 7.8 11.3 0.00 0.20 0.00 99 1014.6
20260906092403 71 131 8.7 13.0 0.00 0.20 0.00 99 1014.6
20260906091903 71 130 8.7 11.3 0.00 0.20 0.00 99 1014.5
20260906091403 71 128 7.0 11.3 0.00 0.20 0.00 99 1014.5
20260906090904 71 134 7.8 12.2 0.00 0.20 0.00 99 1014.5
20260906090404 71 127 6.1 11.3 0.00 0.20 0.00 99 1014.5
20260906085403 71 127 6.1 10.4 0.00 0.20 0.00 99 1014.4
20260906083904 71 131 7.8 11.3 0.00 0.20 0.00 99 1014.4
20260906083404 71 124 8.7 12.2 0.00 0.20 0.00 99 1014.4
20260906082904 71 119 7.8 11.3 0.00 0.20 0.00 99 1014.3
20260906082404 71 123 8.7 11.3 0.00 0.20 0.00 99 1014.2
20260906081903 71 123 7.8 10.4 0.00 0.20 0.00 99 1014.3
20260906081404 71 115 8.7 10.4 0.00 0.20 0.00 99 1014.4
20260906080904 71 116 7.8 10.4 0.00 0.20 0.00 99 1014.4
20260906080404 71 121 6.1 10.4 0.00 0.20 0.00 99 1014.4
20260906075903 71 122 7.8 11.3 0.00 0.20 0.00 99 1014.3
20260906075404 71 124 6.1 10.4 0.00 0.20 0.00 99 1014.3
20260906074903 71 123 7.0 10.4 0.00 0.20 0.00 99 1014.3
20260906074404 71 130 6.1 10.4 0.00 0.20 0.00 99 1014.4
20260906073903 71 125 7.8 12.2 0.00 0.20 0.00 99 1014.3
20260906073404 71 121 7.8 11.3 0.00 0.20 0.00 99 1014.1
20260906072904 71 122 7.8 10.4 0.00 0.20 0.00 99 1014.3
20260906072403 71 118 7.0 8.7 0.00 0.20 0.00 99 1014.3
20260906071904 71 120 7.8 10.4 0.00 0.20 0.00 99 1014.3
20260906070904 72 122 7.8 11.3 0.00 0.20 0.00 99 1014.4
20260906070404 72 121 7.8 10.4 0.00 0.20 0.00 99 1014.4
20260906065903 72 122 7.8 10.4 0.00 0.20 0.00 99 1014.4
20260906065403 72 128 7.0 10.4 0.00 0.20 0.00 99 1014.5
20260906064904 72 125 6.1 10.4 0.00 0.20 0.00 99 1014.4
20260906064403 72 132 6.1 10.4 0.00 0.20 0.00 99 1014.4
20260906063904 72 125 7.8 10.4 0.00 0.20 0.00 99 1014.6
20260906063404 72 128 7.8 11.3 0.00 0.20 0.00 99 1014.6
20260906062904 72 122 7.8 11.3 0.00 0.20 0.00 99 1014.5
20260906062404 72 123 8.7 11.3 0.00 0.20 0.00 99 1014.5
20260906061903 72 119 7.0 13.0 0.00 0.20 0.00 99 1014.6
20260906060903 72 116 7.8 12.2 0.00 0.20 0.00 99 1014.6
20260906060403 72 114 8.7 10.4 0.00 0.20 0.00 99 1014.6
20260906055904 72 117 8.7 11.3 0.00 0.20 0.00 99 1014.6
20260906055403 73 122 9.6 13.0 0.00 0.20 0.00 99 1014.5
20260906054904 73 131 8.7 12.2 0.00 0.20 0.00 99 1014.5
20260906053904 73 118 9.6 13.0 0.00 0.20 0.00 99 1014.6
20260906053404 73 123 8.7 11.3 0.00 0.20 0.00 99 1014.6
20260906052904 73 120 6.1 10.4 0.00 0.20 0.00 99 1014.6
20260906052404 73 113 7.0 10.4 0.00 0.20 0.00 99 1014.5
20260906051904 73 111 7.8 10.4 0.00 0.20 0.00 98 1014.5
20260906051404 73 108 6.1 7.8 0.00 0.20 0.00 98 1014.5
20260906050903 73 111 7.0 10.4 0.00 0.20 0.00 98 1014.6
20260906050403 73 109 5.2 7.0 0.00 0.20 0.00 98 1014.6
20260906045903 73 123 6.1 7.8 0.00 0.20 0.20 98 1014.6
20260906045404 73 128 5.2 8.7 0.00 0.20 0.20 98 1014.5
20260906044404 74 122 6.1 8.7 0.00 0.20 0.20 98 1014.5
20260906043904 74 138 5.2 7.0 0.00 0.20 0.20 98 1014.5
20260906043403 74 133 4.3 7.8 0.00 0.20 0.20 98 1014.4
20260906042904 74 125 4.3 6.1 0.00 0.20 0.20 98 1014.2
20260906042404 74 125 4.3 7.0 0.00 0.20 0.20 98 1014.2
20260906041404 74 124 5.2 6.1 0.00 0.20 0.20 98 1014.2
20260906040903 74 115 4.3 7.0 0.00 0.20 0.20 98 1014.2
20260906040403 74 111 5.2 7.8 0.00 0.20 0.20 98 1014.1
20260906035904 74 108 6.1 7.8 0.00 0.20 0.20 98 1014.1
20260906035404 74 106 6.1 8.7 0.00 0.20 0.20 98 1014.0
20260906034403 74 112 5.2 7.0 0.00 0.20 0.20 97 1014.0
20260906033904 74 100 5.2 7.8 0.00 0.20 0.20 97 1014.0
20260906033404 75 108 5.2 7.8 0.00 0.20 0.20 97 1014.0
20260906032903 75 94 5.2 7.0 0.00 0.20 0.20 97 1014.1
20260906032404 75 93 4.3 6.1 0.00 0.20 0.20 96 1014.2
20260906031404 75 93 5.2 7.8 0.00 0.20 0.20 96 1014.3
20260906030403 75 88 6.1 7.8 0.00 0.20 0.20 96 1014.4
20260906025903 75 82 3.5 7.8 0.00 0.20 0.20 96 1014.5
20260906025404 75 78 5.2 7.8 0.00 0.20 0.20 96 1014.4
20260906024904 76 85 4.3 7.0 0.00 0.20 0.20 96 1014.4
20260906024403 76 81 5.2 7.8 0.00 0.20 0.20 96 1014.4
20260906023904 76 80 3.5 7.0 0.00 0.20 0.20 96 1014.4
20260906023404 76 80 2.6 4.3 0.00 0.20 0.20 96 1014.5
20260906022904 76 80 3.5 7.0 0.00 0.20 0.20 95 1014.2
20260906022403 76 80 2.6 6.1 0.00 0.20 0.20 95 1014.0
20260906021903 75 80 1.7 4.3 0.00 0.20 0.20 94 1014.0
20260906021404 76 80 2.6 4.3 0.00 0.20 0.20 94 1014.0
20260906020404 76 80 2.6 6.1 0.00 0.20 0.20 93 1014.2
20260906015903 76 80 3.5 6.1 0.00 0.20 0.20 93 1014.2
20260906014904 77 80 2.6 4.3 0.00 0.20 0.20 93 1014.1
20260906014404 77 80 2.6 4.3 0.00 0.20 0.20 93 1014.1
20260906013903 76 80 3.5 6.1 0.00 0.20 0.20 93 1014.0
20260906013403 76 85 3.5 7.0 0.00 0.20 0.20 93 1013.7
20260906012403 76 97 1.7 2.6 0.00 0.20 0.20 92 1013.6
20260906011904 76 97 1.7 2.6 0.00 0.20 0.20 92 1013.6
20260906011403 76 97 1.7 2.6 0.00 0.20 0.20 91 1013.7
20260906010903 77 97 0.9 1.7 0.00 0.20 0.20 90 1013.5
20260906010403 77 97 1.7 2.6 0.00 0.20 0.20 90 1013.5
20260906005903 77 97 2.6 5.2 0.00 0.20 0.20 90 1013.4
20260906005403 78 97 1.7 2.6 0.00 0.20 0.20 90 1013.5
20260906004404 78 97 2.6 5.2 0.00 0.20 0.20 89 1013.5
20260906003904 78 97 2.6 2.6 0.00 0.20 0.20 88 1013.5
20260906003403 78 97 2.6 2.6 0.00 0.20 0.20 87 1013.4
20260906002903 79 97 2.6 5.2 0.00 0.20 0.20 87 1013.5
20260906001904 80 97 4.3 6.1 0.00 0.20 0.20 85 1013.5
20260906001404 80 97 5.2 7.8 0.00 0.20 0.20 84 1013.5
20260906000904 80 94 4.3 7.0 0.00 0.20 0.20 84 1013.4
20260906000403 80 113 6.1 10.4 0.00 0.20 0.20 83 1013.4
20260905235903 81 103 5.2 8.7 0.00 0.20 0.20 83 1013.4
20260905235403 81 95 6.1 10.4 0.00 0.20 0.20 82 1013.4
20260905234403 81 99 8.7 11.3 0.00 0.20 0.20 80 1013.3
20260905233904 82 105 10.4 13.0 0.00 0.20 0.20 79 1013.3
20260905233405 82 101 8.7 12.2 0.00 0.20 0.20 79 1013.4
20260905232904 82 102 10.4 13.9 0.00 0.20 0.20 78 1013.4
20260905232403 82 108 7.8 11.3 0.00 0.20 0.20 79 1013.3
20260905231903 82 113 7.8 11.3 0.00 0.20 0.20 79 1013.3
20260905231404 82 112 11.3 13.9 0.00 0.20 0.20 77 1013.3
20260905230903 82 123 9.6 13.0 0.00 0.20 0.20 78 1013.3
20260905230404 82 118 11.3 14.8 0.00 0.20 0.20 77 1013.3
20260905225903 82 117 10.4 14.8 0.00 0.20 0.20 77 1013.2
20260905225404 82 114 8.7 13.9 0.00 0.20 0.20 78 1013.2
20260905224904 82 121 9.6 13.9 0.00 0.20 0.20 77 1013.2
20260905223904 82 121 8.7 12.2 0.00 0.20 0.20 77 1013.1
20260905223404 82 123 9.6 12.2 0.00 0.20 0.20 76 1013.0
20260905222404 82 101 8.7 12.2 0.00 0.20 0.20 74 1013.0
20260905221904 83 118 9.6 13.9 0.00 0.20 0.20 74 1012.9
20260905221404 83 122 8.7 12.2 0.00 0.20 0.20 74 1012.9
20260905220404 83 112 8.7 11.3 0.00 0.20 0.20 73 1012.7
20260905215903 83 119 7.8 13.0 0.00 0.20 0.20 74 1012.7
20260905215404 83 120 10.4 12.2 0.00 0.20 0.20 73 1012.6
20260905214904 82 104 9.6 13.9 0.00 0.20 0.20 74 1012.5
20260905214403 83 101 10.4 14.8 0.00 0.20 0.20 72 1012.5
20260905212904 82 117 9.6 12.2 0.00 0.20 0.20 73 1012.5
20260905212403 82 119 8.7 11.3 0.00 0.20 0.20 73 1012.5
20260905211904 82 104 8.7 13.9 0.00 0.20 0.20 73 1012.4
20260905210903 82 97 8.7 13.9 0.00 0.20 0.20 73 1012.5
20260905210403 82 93 7.8 11.3 0.00 0.20 0.20 73 1012.5
20260905205903 82 114 7.0 10.4 0.00 0.20 0.20 73 1012.6
20260905205404 83 119 7.8 12.2 0.00 0.20 0.20 72 1012.6
20260905204903 83 103 8.7 11.3 0.00 0.20 0.20 72 1012.6
20260905204404 83 112 9.6 12.2 0.00 0.20 0.20 70 1012.7
20260905203904 83 116 10.4 13.0 0.00 0.20 0.20 69 1012.7
20260905202904 83 92 8.7 12.2 0.00 0.20 0.20 68 1012.6
20260905201903 83 105 10.4 14.8 0.00 0.20 0.20 69 1012.5
20260905201403 83 100 10.4 13.9 0.00 0.20 0.20 70 1012.5
20260905200904 83 108 12.2 14.8 0.00 0.20 0.20 70 1012.3
20260905200404 83 103 11.3 14.8 0.00 0.20 0.20 70 1012.3
20260905195904 84 80 10.4 17.4 0.00 0.20 0.20 70 1012.3
20260905195407 84 92 11.3 13.9 0.00 0.20 0.20 69 1012.4
20260905194903 83 96 10.4 13.9 0.00 0.20 0.20 72 1012.4
20260905194404 82 106 9.6 12.2 0.00 0.20 0.20 73 1012.5
20260905193903 82 83 8.7 13.0 0.00 0.20 0.20 72 1012.3
20260905193404 82 91 8.7 11.3 0.00 0.20 0.20 71 1012.7
20260905192904 82 86 9.6 14.8 0.00 0.20 0.20 71 1012.8
20260905192404 82 91 10.4 13.9 0.00 0.20 0.20 71 1012.8
20260905191904 81 92 10.4 14.8 0.00 0.20 0.20 73 1012.9
20260905191403 80 101 10.4 13.9 0.00 0.20 0.20 75 1013.0
20260905190403 80 125 11.3 15.6 0.00 0.20 0.20 76 1013.2
20260905185904 81 117 11.3 15.6 0.00 0.20 0.20 75 1013.1
20260905185404 84 124 11.3 17.4 0.00 0.20 0.20 75 1013.1
20260905184904 84 130 7.8 10.4 0.00 0.20 0.20 70 1012.9
20260905184403 84 128 4.3 7.0 0.00 0.20 0.20 73 1012.9